Regional Weather Roundup
Issued by NWS

Home | Current Version | Previous Version | Graphics & Text | Print | Product List | Glossary On
Versions: 1 2 3 4 5 6 7 8 9 10 11 12 13 14 15 16 17 18 19 20 21 22 23 24 25 26 27 28 29 30 31 32 33 34 35 36 37 38 39 40 41 42 43 44 45 46 47 48 49 50
000
ASUS45 KTFX 030410
RWRMT
MONTANA REGIONAL WEATHER ROUNDUP
NATIONAL WEATHER SERVICE GREAT FALLS MT
1000 PM MDT THU JUL 02 2015

NOTE: "FAIR" INDICATES FEW OR NO CLOUDS BELOW 12000 FEET WITH NO
SIGNIFICANT WEATHER AND/OR OBSTRUCTIONS TO VISIBILITY.

MTZ001>007-043-030500-
WEST OF THE DIVIDE

CITY           SKY/WX    TMP DP  RH WIND       PRES   REMARKS
KALISPELL      CLEAR     74  54  49 CALM      29.95R
MISSOULA       CLEAR     81  47  30 NW5       29.96R
BUTTE          CLEAR     76  42  29 S8        30.14S
MULLAN PASS    CLEAR     68  37  32 NW7       30.19S
DEER LODGE       N/A     70  48  46 W6        30.10S
EUREKA           N/A     79  48  34 CALM      29.94R
HAMILTON         N/A     73  55  53 S5        29.99R
PLAINS           N/A     86  48  26 CALM      29.94R
RONAN            N/A     74  56  53 N3        30.01S
THOMPSON FALLS   N/A     83  44  25 SW8       29.97R
$$

MTZ008-052>055-030500-
SOUTHWEST MONTANA

CITY           SKY/WX    TMP DP  RH WIND       PRES   REMARKS
BOZEMAN        CLEAR     73  49  42 SE10      30.08R
DILLON         CLEAR     71  44  37 E9        30.08R
W YELLOWSTONE  CLEAR     66  41  39 CALM      30.23R
THREE FORKS      N/A     71  60  68 CALM      30.06R
$$

MTZ009-010-012-014-046-048-049-054-030500-
EAST SLOPES AND CENTRAL MONTANA

CITY           SKY/WX    TMP DP  RH WIND       PRES   REMARKS
CUT BANK       CLEAR     72  47  40 SE8       30.05S
GREAT FALLS    PTCLDY    76  48  37 E10       30.05S
MALMSTROM AFB  PTCLDY    71  51  50 E7        30.05S
HELENA         CLEAR     78  50  37 NW6       30.02R
CONRAD           N/A     67  57  70 NE2       30.08S
$$

MTZ011-013-016-021-045-047-050-051-030500-
NORTH CENTRAL MONTANA

CITY           SKY/WX    TMP DP  RH WIND       PRES   REMARKS
HAVRE          CLEAR     71  55  56 SE7       30.02R
LEWISTOWN      CLEAR     67  53  61 E8        30.13R HAZE
CHINOOK          N/A     72  57  60 E6        30.03S
FORT BENTON      N/A     75  52  43 E5        30.03S
$$

MTZ017>020-022>027-061-062-030500-
NORTHEAST MONTANA

CITY           SKY/WX    TMP DP  RH WIND       PRES   REMARKS
GLASGOW        CLEAR     68  55  63 NE10      30.03R HAZE
JORDAN           N/A     68  56  65 N8        30.06R
SIDNEY         CLEAR     70  57  64 W5        30.02S
WOLF POINT     CLEAR     71  61  70 N7        30.03R HAZE
MALTA            N/A     68  55  62 CALM      30.01S
PLENTYWOOD       N/A     66  57  72 N6        30.03R
POPLAR           N/A     68  63  83 N3        30.03
SCOBEY           N/A     63  54  72 CALM      30.04S
$$

MTZ028>42-056>058-030500-
SOUTHCENTRAL AND SOUTHEAST MONTANA

CITY           SKY/WX    TMP DP  RH WIND       PRES   REMARKS
BAKER          CLEAR     65  59  81 SE3       30.07R HAZE
BILLINGS       CLEAR     74  51  44 NE7       30.11R
LIVINGSTON     CLEAR     75  49  39 E17       30.11R
MILES CITY     CLEAR     73  54  51 N3        30.05R
EKALAKA          N/A     66  55  67 N3        30.08R
FORSYTH          N/A     72  55  56 CALM      30.06R
LAUREL           N/A     70  50  49 CALM      30.09R
ROUNDUP          N/A     71  50  47 CALM      30.02R
$$

REGIONAL REPORTS...DAKOTAS

CITY           SKY/WX    TMP DP  RH WIND       PRES   REMARKS
WILLISTON      CLEAR     73  62  68 N7        30.02R
MINOT          CLOUDY    68  64  87 SW7       29.97R FOG
DICKINSON      CLEAR     66  60  81 SE5       30.03R HAZE
BEACH          CLOUDY    64  64 100 S5        30.07R FOG
CROSBY         FAIR      64  64 100 NW6       30.02R FOG
BISMARCK       CLOUDY    66  63  90 CALM      29.99R FOG
GRAND FORKS    CLOUDY    67  64  90 SW7       29.88S
FARGO          CLEAR     68  55  63 S9        29.93S
BUFFALO SD       N/A     69  58  67 SE3       30.01R
RAPID CITY     CLEAR     63  58  83 N8        30.10R
$$

REGIONAL REPORTS...WYOMING/IDAHO/WASHINGTON

CITY           SKY/WX    TMP DP  RH WIND       PRES   REMARKS
GILLETTE       CLEAR     60  52  74 W3        30.16R
SHERIDAN       PTCLDY    65  55  70 SE3       30.13R
BUFFALO WY     MOCLDY    66  55  67 W8        30.20R
CODY           CLEAR     70  48  46 CALM      30.18R
YELLOWSTONE LA   N/A     63  39  41 NW3       30.34R
IDAHO FALLS    CLEAR     78  51  38 CALM      30.03R
SALMON         CLEAR     79  43  27 NE5       29.97R
BOISE          CLEAR     92  40  16 N6        29.87R
SPOKANE        PTCLDY    90  40  17 NW7       29.92S
$$

REGIONAL REPORTS...ALBERTA

CITY           SKY/WX    TMP DP  RH WIND       PRES   REMARKS
EDMONTON       CLEAR     75  52  43 S6        29.91F
CALGARY        PTCLDY    73  57  56 S8        30.03R
LETHBRIDGE     PTCLDY    70  59  68 E8        30.00S
MEDICINE HAT   CLEAR     73  57  56 SW2       29.98S
CARDSTON         N/A     70  57  64 S6          N/A
MILK RIVER       N/A     68  52  56 E9          N/A
ONEFOUR          N/A     70  50  49 N5          N/A
$$

REGIONAL REPORTS...SASKATCHEWAN

CITY           SKY/WX    TMP DP  RH WIND       PRES   REMARKS
SWIFT CURRENT  CLEAR     64  57  77 SW9       30.03S HAZE
REGINA         MOCLDY    68  64  88 W2        30.00S SMOKE
SASKATOON      MOCLDY    68  57  68 W2        29.98S
CYPRESS HILLS    N/A     63  54  72 SE6         N/A
VAL MARIE        N/A     63  55  77 CALM        N/A
ROCKGLEN         N/A     64  57  77 CALM        N/A
ASSINIBOIA       N/A    N/A N/A N/A S5          N/A
$$



USA.gov is the U.S. government's official web portal to all federal, state and local government web resources and services.